This is the latest recevied weather packets stored in our database for station/object W8KVG. If no packets are shown the sender has not sent any weather packets the latest 10 day(s).
| Time | Temp. | Humidity | Pressure | Rain* | Wind** | Luminosity | Snow |
|---|---|---|---|---|---|---|---|
| 1777481431 | 16.67° C | 97% | 1006.2 hPa | 0 mm | - | 124 W/m² | - |
| 1777481126 | 16.67° C | 97% | 1006.2 hPa | 0 mm | - | 173 W/m² | - |
| 1777480823 | 16.67° C | 97% | 1006.5 hPa | 0 mm | - | 110 W/m² | - |
| 1777480520 | 16.11° C | 97% | 1006.4 hPa | 0 mm | - | 154 W/m² | - |
| 1777480217 | 16.11° C | 97% | 1006.6 hPa | 0 mm | - | 143 W/m² | - |
| 1777479913 | 16.11° C | 98% | 1006.6 hPa | 0 mm | - | 85 W/m² | - |
| 1777479610 | 16.11° C | 98% | 1006.5 hPa | 0 mm | - | 128 W/m² | - |
| 1777479308 | 15.56° C | 98% | 1007 hPa | 0 mm | - | 143 W/m² | - |
| 1777479004 | 15.56° C | 98% | 1007.1 hPa | 0 mm | - | 114 W/m² | - |
| 1777478701 | 15.56° C | 98% | 1007.1 hPa | 0 mm | - | 69 W/m² | - |
| 1777478397 | 15.56° C | 98% | 1007.3 hPa | 0 mm | - | 84 W/m² | - |
| 1777478094 | 15.56° C | 99% | 1007.5 hPa | 0 mm | - | 118 W/m² | - |
| 1777477790 | 15° C | 99% | 1007.3 hPa | 0 mm | - | 172 W/m² | - |
| 1777477486 | 15° C | 99% | 1007.4 hPa | 0 mm | - | 169 W/m² | - |
| 1777477183 | 14.44° C | 99% | 1007.5 hPa | 0 mm | - | 160 W/m² | - |
| 1777476879 | 14.44° C | 99% | 1007.7 hPa | 0 mm | - | 152 W/m² | - |
| 1777476577 | 13.89° C | 99% | 1007.8 hPa | 0 mm | - | 105 W/m² | - |
| 1777476273 | 13.89° C | 99% | 1008 hPa | 0 mm | - | 94 W/m² | - |
| 1777475968 | 13.89° C | 99% | 1008.2 hPa | 0 mm | - | 67 W/m² | - |
| 1777475665 | 13.89° C | 99% | 1008.1 hPa | 0 mm | - | 73 W/m² | - |
| 1777475362 | 13.89° C | 99% | 1008.2 hPa | 0 mm | - | 51 W/m² | - |
| 1777475057 | 13.89° C | 99% | 1008.1 hPa | 0 mm | - | 53 W/m² | - |
| 1777474754 | 13.89° C | 99% | 1008.3 hPa | 0 mm | - | 77 W/m² | - |
| 1777474450 | 13.89° C | 99% | 1008.2 hPa | 0 mm | - | 82 W/m² | - |
| 1777474146 | 13.33° C | 99% | 1008.4 hPa | 0 mm | - | 99 W/m² | - |
* Rain latest hour (hover to see other rain measurements)
** Current wind speed in m/s (hover to see current wind gust speed)